Weather History for Beverly, MA

Change the Weather History Date:

Friday, March 7, 2014

  Actual Average Record
Temperature  
Mean Temperature 18 °F -  
Max Temperature 33 °F 38 °F 62 °F (2012)
Min Temperature 3 °F 22 °F 3 °F (2003)
Degree Days  
Heating Degree Days 47    
Moisture  
Dew Point 14 °F    
Average Humidity 70    
Maximum Humidity 88    
Minimum Humidity 47    
Precipitation  
Precipitation 0.00 in - - ()
Sea Level Pressure  
Sea Level Pressure 30.25 in    
Wind  
Wind Speed 2 mph (SE)    
Max Wind Speed 12 mph    
Max Gust Speed -    
Visibility 10 miles    
Events      
Averages and records for this station are not official NWS values.
T = Trace of Precipitation, MM = Missing Value Source: NWS Daily Summary

Daily Weather History Graph

Daily Weather History Graph

Search for Another Location

Airport:

Trip Planner

Search our weather history database for the weather conditions in past years. The results will help you decide how hot, cold, wet, or windy it might be!

Date:

Astronomy

Mar. 07, 2014 Rise Set
Actual Time 6:09 AM EST 5:40 PM EST
Civil Twilight 5:41 AM EST 6:08 PM EST
Nautical Twilight 5:08 AM EST 6:41 PM EST
Astronomical Twilight 4:35 AM EST 7:14 PM EST
Moon 9:52 AM EST (3/7) No Moon Set
Length of Visible Light 12h 27m
Length of Day
11h 31m
Waxing Crescent, 42% of the Moon is Illuminated
Mar 7
Waxing Crescent
Mar 8
First Quarter
Mar 16
Full
Mar 23
Last Quarter
Mar 30
New

Hourly Weather History & Observations

Time (EST) Temp. Windchill Dew Point Humidity Pressure Visibility Wind Dir Wind Speed Gust Speed Precip Events Conditions
12:53 AM 7.0 °F - 1.9 °F 80% 30.48 in 10.0 mi Calm Calm - N/A   Clear
1:53 AM 7.0 °F - 1.9 °F 80% 30.48 in 10.0 mi Calm Calm - N/A   Clear
2:53 AM 10.0 °F - 3.0 °F 73% 30.47 in 10.0 mi Calm Calm - N/A   Clear
3:53 AM 5.0 °F - -0.9 °F 76% 30.43 in 10.0 mi Calm Calm - N/A   Clear
4:53 AM 7.0 °F - 1.9 °F 80% 30.44 in 10.0 mi Calm Calm - N/A   Clear
5:53 AM 3.0 °F -4.4 °F -2.9 °F 76% 30.42 in 10.0 mi NNW 3.5 mph - N/A   Clear
6:53 AM 5.0 °F - -0.9 °F 76% 30.40 in 10.0 mi Calm Calm - N/A   Partly Cloudy
7:53 AM 14.0 °F - 7.0 °F 74% 30.41 in 10.0 mi Calm Calm - N/A   Mostly Cloudy
8:53 AM 23.0 °F 15.8 °F 10.0 °F 58% 30.38 in 10.0 mi NNW 5.8 mph - 0.00 in   Mostly Cloudy
9:53 AM 28.0 °F - 10.0 °F 47% 30.35 in 10.0 mi Calm Calm - N/A   Clear
10:53 AM 32.0 °F 24.8 °F 16.0 °F 52% 30.34 in 10.0 mi South 8.1 mph - N/A   Mostly Cloudy
11:53 AM 32.0 °F 23.0 °F 18.0 °F 56% 30.32 in 10.0 mi South 11.5 mph - N/A   Mostly Cloudy
12:53 PM 32.0 °F 25.6 °F 19.9 °F 61% 30.26 in 10.0 mi SE 6.9 mph - N/A   Clear
1:53 PM 32.0 °F 24.2 °F 19.9 °F 61% 30.22 in 10.0 mi SE 9.2 mph - N/A   Clear
2:53 PM 33.1 °F 26.1 °F 21.0 °F 61% 30.18 in 10.0 mi SE 8.1 mph - N/A   Clear
3:53 PM 32.0 °F 25.6 °F 21.9 °F 66% 30.14 in 10.0 mi SSE 6.9 mph - N/A   Overcast
4:51 PM 33.8 °F 30.8 °F 23.0 °F 65% 30.13 in 10.0 mi SE 3.5 mph - N/A   Overcast
4:53 PM 33.1 °F 28.7 °F 23.0 °F 66% 30.12 in 10.0 mi SE 4.6 mph - N/A   Overcast
5:53 PM 33.1 °F 28.7 °F 24.1 °F 70% 30.12 in 10.0 mi SSE 4.6 mph - N/A   Overcast
6:53 PM 32.0 °F - 23.0 °F 69% 30.10 in 10.0 mi Calm Calm - N/A   Mostly Cloudy
7:53 PM 28.9 °F - 21.9 °F 75% 30.07 in 10.0 mi Calm Calm - N/A   Clear
8:53 PM 28.9 °F 25.2 °F 23.0 °F 78% 30.05 in 10.0 mi NNW 3.5 mph - N/A   Overcast
9:53 PM 30.0 °F - 24.1 °F 79% 30.03 in 10.0 mi Calm Calm - N/A   Overcast
10:53 PM 28.9 °F 25.2 °F 23.0 °F 78% 29.98 in 10.0 mi NNW 3.5 mph - N/A   Clear
11:53 PM 26.1 °F - 23.0 °F 88% 29.94 in 10.0 mi Calm Calm - N/A   Clear